SCP
0 0 0 0 0 0 0 0 0 0 0 0 0 0 0 0 0 0 0 0 0 0 0 0 0 0 0 0 0 0 0 0 0 0 0 0 0 0
0 0 0 0 0 0 0 0 0 0 0 0 0 0 0 0 0 0 0 0 0 0 0 0 0 0 0 0 0 0 0 0 0 0 0 0 0 0
0 0 0 0 0 0 0 0 0 0 0 0 0 0 0 0 0 0 0 0 0 0 0 0 0 0 0 0 0 0 0 0 0 0 0 0 0 0
0 0 0 0 0 0 0 0 0 0 0 0 0 0 0 0 0 0 0 0 0 0 0 0 0 0 0 0 0 0 0 0 0 0 0 0 0 0
0 0 0 0 0 0 0 0 0 0 0 0 0 0 0 0 0 0 0 0 0 0 0 0 0 0 0 0 0 0 0 0 0 0 0 0 0 0
0 0 0 0 0 0 0 0 0 0 0 0 0 0 0 0 0 0 0 0 0 0 0 0 0 0 0 0 0 0 0 0 0 0 0 0 0 0
0 0 0 0 0 0 0 0 0 0 0 0 0 0 0 0 0 0 0 0 0 0 0 0 0 0 0 0 0 0 0 0 0 0 0 0 0 0
0 0 0 0 0 0 0 0 0 0 0 0 0 0 0 0 0 0 0 0 0 0 0 0 0 0 0 0 0 0 0 0 0 0 0 0 0 0
0 0 0 0 0 0 0 0 0 0 0 0 0 0 0 0 0 0 0 0 0 0 0 0 0 0 0 0 0 0 0 0 0 0 0 0 0 0
0 0 0 0 0 0 0 0 0 0 0 0 0 0 0 0 0 0 0 0 0 0 0 0 0 0 0 0 0 0 0 0 0 0 0 0 0 0
0 0 0 0 0 0 0 0 0 0 0 0 0 0 0 0 0 0 0 0 0 0 0 0 0 0 0 0 0 0 0 0 0 0 0 0 0 0
0 0 0 0 0 0 0 0 0 0 0 0 0 0 0 0 0 0 0 0 0 0 0 0 0 0 0 0 0 0 0 0 0 0 0 0 0 0
0 0 0 0 0 0 0 0 0 0 0 0 0 0 0 0 0 0 0 0 0 0 0 0 0 0 0 0 0 0 0 0 0 0 0 0 0 0
0 0 0 0 0 0 0 0 0 0 0 0 0 0 0 0 0 0 0 0 0 0 0 0 0 0 0 0 0 0 0 0 0 0 0 0 0 0
0 0 0 0 0 0 0 0 0 0 0 0 0 0 0 0 0 0 0 0 0 0 0 0 0 0 0 0 0 0 0 0 0 0 0 0 0 0
0 0 0 0 0 0 0 0 0 0 0 0 0 0 0 0 0 0 0 0 0 0 0 0 0 0 0 0 0 0 0 0 0 0 0 0 0 0
0 0 0 0 0 0 0 0 0 0 0 0 0 0 0 0 0 0 0 0 0 0 0 0 0 0 0 0 0 0 0 0 0 0 0 0 0 0
0 0 0 0 0 0 0 0 0 0 0 0 0 0 0 0 0 0 0 0 0 0 0 0 0 0 0 0 0 0 0 0 0 0 0 0 0 0
0 0 0 0 0 0 0 0 0 0 0 0 0 0 0 0 0 0 0 0 0 0 0 0 0 0 0 0 0 0 0 0 0 0 0 0 0 0
0 0 0 0 0 0 0 0 0 0 0 0 0 0 0 0 0 0 0 0 0 0 0 0 0 0 0 0 0 0 0 0 0 0 0 0 0 0
0 0 0 0 0 0 0 0 0 0 0 0 0 0 0 0 0 0 0 0 0 0 0 0 0 0 0 0 0 0 0 0 0 0 0 0 0 0
0 0 0 0 0 0 0 0 0 0 0 0 0 0 0 0 0 0 0 0 0 0 0 0 0 0 0 0 0 0 0 0 0 0 0 0 0 0
0 0 0 0 0 0 0 0 0 0 0 0 0 0 0 0 0 0 0 0 0 0 0 0 0 0 0 0 0 0 0 0 0 0 0 0 0 0
Wind_Speed
2 2 2 2 2 2 1 1 2 2 2 2 1 2 2 3 6 4 5 8 9 8 8 7 7 7 6 6 6 6 6 6 6 6 5 5 5 5
2 2 2 2 2 2 2 1 1 1 1 2 1 2 2 2 5 3 3 9 9 10 9 8 8 7 7 7 7 6 6 6 6 5 5 5 6 6
3 3 3 3 2 2 2 1 1 1 1 1 1 1 2 2 2 2 3 5 6 10 10 9 9 8 8 8 7 7 7 6 6 6 6 6 6 5
3 3 3 3 3 2 2 1 1 1 1 1 1 2 2 3 3 3 3 4 4 8 11 10 10 9 9 8 7 7 6 6 6 6 6 5 5 5
3 3 3 3 2 2 2 2 1 1 1 1 2 1 1 2 2 3 3 2 4 5 9 10 10 9 9 9 8 7 7 7 7 7 6 6 5 5
3 3 2 2 2 2 3 2 2 1 1 1 1 2 2 2 2 2 2 2 2 3 4 5 7 9 9 9 9 9 8 8 8 7 7 6 6 5
2 2 3 2 2 1 2 1 2 1 1 1 1 1 1 1 2 2 2 2 2 2 1 2 3 3 5 7 9 9 10 10 9 9 8 8 7 7
2 2 3 3 4 3 1 0 1 2 1 1 1 1 1 1 1 2 1 1 1 1 1 2 3 3 4 4 8 11 12 11 10 10 9 9 9 8
2 2 3 3 4 3 4 4 2 2 3 2 2 2 2 1 1 2 1 1 2 2 1 2 2 3 3 4 11 12 12 11 11 10 10 10 10 9
3 3 3 2 3 2 4 4 4 3 4 3 3 3 2 1 1 2 3 3 3 3 3 2 2 2 2 2 8 11 11 11 11 10 10 10 10 10
3 3 3 3 3 3 3 3 3 3 5 4 4 4 3 3 2 2 2 2 3 2 2 2 2 2 2 2 5 10 10 11 11 11 10 10 10 9
3 3 3 3 3 3 3 3 4 4 3 3 3 4 5 6 6 5 3 3 3 3 2 2 2 2 2 2 2 4 5 8 10 10 10 10 9 6
3 2 2 4 4 4 4 3 4 4 3 3 4 4 4 4 5 5 5 4 3 3 2 1 2 2 2 2 2 3 4 4 4 6 9 11 10 8
2 1 1 2 4 5 4 4 5 4 4 4 4 4 4 4 4 5 5 5 5 5 4 2 2 2 2 2 2 2 3 4 4 4 4 7 9 11
2 2 1 3 4 4 6 6 4 4 4 4 4 4 3 4 4 4 5 5 6 6 5 4 4 4 3 3 3 2 2 3 4 3 4 4 4 4
3 2 3 5 4 4 4 5 5 4 4 4 4 3 3 3 4 4 4 4 4 4 4 4 4 4 3 4 3 3 2 2 2 2 3 3 3 4
2 2 3 3 3 4 4 4 4 4 5 5 4 4 3 3 3 3 2 2 3 4 3 3 4 4 4 3 3 3 2 2 2 3 2 3 3 3
3 4 4 4 4 4 4 5 5 5 5 4 4 4 4 4 3 2 2 3 3 3 3 3 2 2 2 3 4 4 3 3 2 3 3 3 3 3
4 5 4 4 4 4 4 4 4 4 4 4 4 4 3 3 3 3 3 3 3 3 3 2 2 3 3 4 4 4 4 3 2 2 3 3 3 3
5 6 5 4 4 4 3 3 3 3 3 3 3 3 3 3 3 2 3 3 3 3 3 2 2 2 4 4 3 3 6 4 3 3 3 2 2 3
5 5 5 5 4 3 3 3 3 3 3 3 3 3 3 3 3 3 2 3 3 2 3 3 3 4 3 2 3 3 3 5 4 3 3 2 3 3
4 4 3 3 3 3 3 3 3 3 2 2 2 3 3 3 3 4 3 3 3 3 3 3 3 3 3 4 4 4 3 3 4 5 5 5 3 4
3 3 3 3 3 3 3 3 3 2 2 2 2 2 2 2 3 3 3 3 2 3 2 2 2 2 3 3 3 3 3 3 2 2 3 6 8 9
Wind_Direction
243 252 257 275 266 269 254 208 199 216 221 199 173 158 152 135 161 188 175 187 194 200 206 210 215 219 224 224 222 222 219 220 226 225 224 224 222 220
224 236 238 273 280 275 275 261 222 206 220 208 188 160 156 167 176 203 187 183 196 202 206 211 216 218 219 219 221 219 220 222 220 218 219 218 217 218
230 227 221 240 270 274 266 269 254 211 213 213 160 149 169 172 174 210 192 188 197 205 206 208 213 216 218 218 218 219 218 216 214 216 219 220 219 218
232 235 229 230 233 269 279 269 258 202 189 214 207 184 197 188 182 215 220 207 200 203 203 206 210 214 217 217 217 215 212 209 210 212 215 218 218 219
227 227 223 226 226 244 255 261 254 236 182 202 212 185 193 201 190 223 239 232 233 199 199 207 213 214 215 215 213 210 207 206 207 209 213 217 217 214
215 217 213 206 210 248 245 254 255 253 228 221 220 194 199 209 195 217 238 224 242 215 193 197 208 212 216 214 208 204 203 203 206 210 215 219 218 218
222 206 203 190 185 219 253 251 248 238 236 234 242 223 208 189 208 232 230 229 235 223 193 203 191 202 212 219 215 207 203 203 205 208 213 216 218 221
230 216 208 198 194 192 189 159 275 243 244 260 266 259 249 225 223 250 246 235 251 240 200 236 192 199 204 200 202 201 202 204 206 210 213 217 220 222
226 231 243 217 205 190 200 209 236 249 240 249 258 263 258 257 276 279 279 261 258 242 220 258 236 219 213 202 188 193 200 204 208 211 214 219 222 224
229 226 229 237 238 224 222 212 215 226 233 232 249 270 276 308 276 255 255 253 251 244 199 232 246 237 227 193 189 191 198 204 209 212 215 219 222 225
233 230 223 226 220 232 234 219 221 230 236 242 239 234 237 253 256 280 269 259 260 247 208 211 241 248 231 205 194 196 202 207 212 216 218 220 222 225
229 212 204 212 204 206 229 227 233 242 247 236 238 242 236 234 227 226 244 256 260 256 230 207 227 231 255 221 177 185 207 218 220 222 223 223 219 214
235 231 199 182 198 214 230 244 241 257 255 243 233 233 231 225 217 217 223 230 247 255 258 232 242 236 227 238 212 197 194 199 204 222 226 226 218 207
268 257 218 181 211 226 230 239 248 261 253 244 240 235 231 228 222 219 221 225 228 239 257 250 248 249 250 248 248 218 198 199 195 204 209 215 220 223
286 290 268 218 211 225 231 232 238 243 244 247 248 245 238 228 224 222 223 226 233 242 245 230 233 246 245 242 241 229 222 219 206 201 200 205 207 206
264 282 257 230 233 234 222 221 223 232 236 245 253 252 247 239 233 225 223 213 228 239 236 229 228 233 245 250 244 245 229 218 215 217 212 215 215 209
232 235 240 237 227 219 219 219 218 222 232 241 249 254 251 246 245 232 222 220 231 235 236 225 222 224 229 235 246 243 234 229 219 218 214 233 237 220
219 237 235 233 235 229 223 218 217 223 229 233 238 245 247 244 244 235 223 231 241 244 236 227 217 232 242 251 233 239 238 235 230 224 215 226 245 236
228 245 243 243 244 240 235 230 225 221 227 234 237 237 242 248 246 239 240 244 250 253 250 238 218 212 239 254 258 226 226 237 230 237 228 225 240 241
237 245 241 243 245 246 246 244 238 224 225 240 244 241 239 244 242 239 240 244 247 252 255 244 233 226 234 246 255 254 221 224 227 235 241 248 259 257
245 251 248 249 248 242 245 244 245 237 226 229 240 246 246 247 252 253 250 251 248 254 259 258 250 240 247 255 255 252 231 221 227 223 225 242 258 253
251 261 267 264 257 249 244 240 239 236 232 232 237 239 247 250 251 250 250 245 237 241 248 249 244 237 237 246 257 257 248 242 239 239 247 237 227 232
254 261 265 266 263 260 260 254 251 249 245 243 245 248 253 255 252 249 251 249 246 250 255 264 265 254 253 250 255 265 267 255 246 241 253 258 247 248